Location: Fountain Hills
(33.6120°N, 111.7170°W)
Time: 19:18:29
(UTC-07:00)

Hamsat - Visible Passes

Search period start: 30 August 2016 00:00
Search period end: 09 September 2016 00:00
Orbit: 586 x 620 km, 97.6° (Epoch: 29 August)

Date Brightness Start Highest point End Pass type
(mag) Time Alt. Az. Time Alt. Az. Time Alt. Az.
30 Aug ? 03:46:08 10° ENE 03:47:41 12° E 03:49:13 10° ESE visible
30 Aug ? 05:19:32 10° N 05:23:38 46° WNW 05:27:45 10° SSW visible
31 Aug ? 03:57:02 10° NE 03:59:47 17° E 04:02:32 10° SE visible
31 Aug ? 05:31:45 10° N 05:35:35 33° WNW 05:39:26 10° SW visible
01 Sep ? 04:08:26 10° NE 04:11:52 23° E 04:15:17 10° SSE visible
02 Sep ? 04:20:05 10° NE 04:23:55 32° E 04:27:47 10° SSE visible
03 Sep ? 04:31:50 10° NNE 04:35:58 45° E 04:40:06 10° S visible
04 Sep ? 04:43:43 10° NNE 04:48:00 64° E 04:52:16 10° S visible
05 Sep ? 04:55:40 10° NNE 05:00:00 89° W 05:04:19 10° SSW visible
06 Sep ? 05:07:42 10° N 05:11:59 63° WNW 05:16:15 10° SSW visible
07 Sep ? 03:46:14 10° ENE 03:48:00 12° E 03:49:44 10° ESE visible
07 Sep ? 05:19:50 10° N 05:23:57 44° WNW 05:28:02 10° SW visible
08 Sep ? 03:57:14 10° NE 04:00:05 17° E 04:02:56 10° SE visible
08 Sep ? 05:32:03 10° N 05:35:53 32° WNW 05:39:43 10° SW visible
